Location: Locornan
(48.4333°N, 4.6500°W)
Time: 12:32:36
(UTC+00:00)

Daily predictions for brighter satellites

Satellite Brightness Start Highest point End
(mag) Time Altitude Azimuth Time Altitude Azimuth Time Altitude Azimuth
USA 234 4.0 20:57:32 10° E 21:03:51 52° NNE 21:10:10 10° NW
Cosmos 1745 Rocket 4.0 20:58:05 10° N 21:04:16 89° E 21:10:25 10° S
Cosmos 1190 Rocket 4.4 21:00:31 10° NNW 21:05:45 53° ENE 21:10:56 10° SE
SPOT 5 3.4 21:01:45 10° SE 21:05:56 40° ENE 21:10:01 10° N
CARTOSAT-1 3.6 21:02:02 10° SSE 21:06:20 74° ENE 21:10:39 10° N
Cosmos 407 Rocket 3.5 21:06:44 10° NNW 21:11:58 84° ENE 21:17:07 10° SSE
Resurs 01 Rocket 2.7 21:12:55 10° S 21:17:10 44° W 21:21:27 10° NNW
Lacrosse 5 rocket 1.7 21:15:59 10° NW 21:19:44 54° NNE 21:23:42 10° ESE
Cosmos 1544 Rocket 4.3 21:16:26 10° N 21:20:29 37° ENE 21:24:27 10° SE
ATLAS 5 CENTAUR R/B 3.6 21:06:11 10° NW 21:21:55 73° SW 21:26:13 10° SSE
Cosmos 2056 Rocket 4.0 21:17:56 10° S 21:22:58 43° ESE 21:28:05 10° NE
Meteor 2-10 Rocket 3.8 21:19:14 10° NNW 21:24:17 66° W 21:29:14 10° S
ERS-1 Rocket 3.2 21:24:29 10° SSE 21:29:27 62° ENE 21:34:26 10° N
Lacrosse 5 2.5 21:25:26 10° NW 21:30:28 54° NNE 21:35:28 10° ESE
Cosmos 676 Rocket 4.4 21:27:15 10° NNW 21:32:30 55° ENE 21:37:18 12° SE
Cosmos 1140 Rocket 3.8 21:27:27 10° NNW 21:32:37 64° WSW 21:37:42 10° S
Tiangong 2.4 21:31:36 10° SW 21:34:08 22° S 21:36:05 13° SE
Cosmos 1420 Rocket 4.5 21:29:16 10° S 21:34:09 42° ESE 21:39:07 10° NE
Cosmos 2084 4.2 21:33:16 10° S 21:36:30 26° ESE 21:39:47 10° ENE
SL-8 R/B 3.7 21:32:02 10° WSW 21:36:53 85° SSE 21:41:42 10° E
USA 32 4.2 21:32:09 10° SSE 21:37:16 58° E 21:42:24 10° NNE
Cosmos 2315 Rocket 4.0 21:34:51 10° S 21:41:13 82° E 21:47:34 10° N
Cosmos 1300 4.4 21:38:26 10° NNW 21:41:46 29° W 21:45:05 10° SSW
Cosmos 1271 Rocket 3.1 21:39:53 10° N 21:43:49 55° ENE 21:47:01 15° SSE
FALCON 9 DEB 3.1 21:44:03 10° WSW 21:47:19 81° NNW 21:50:36 10° ENE
Terra 1.9 21:46:06 13° SSE 21:50:20 75° ENE 21:55:07 10° N
ARIANE 5 R/B 2.9 21:46:38 14° SSE 21:50:21 56° ENE 21:54:44 10° N
Ariane Rocket 4.4 21:47:16 10° SSW 21:51:52 34° W 21:56:30 10° NNW
Cosmos 1954 Rocket 4.0 21:47:57 10° NNW 21:53:17 84° ENE 21:57:40 15° SSE
Cosmos 1709 Rocket 4.4 21:47:44 10° NNW 21:53:50 64° W 21:59:59 10° S
Meteor 2-5 Rocket 3.8 21:50:08 10° SSW 21:55:40 80° WNW 22:01:15 10° N
Cosmos 2074 Rocket 4.2 21:56:26 10° N 22:02:41 62° ENE 22:07:42 16° SSE
CZ-4B R/B 4.1 22:03:23 10° NNW 22:05:02 14° WNW 22:06:41 10° W
Cosmos 1455 Rocket 4.2 22:02:52 10° NNW 22:06:55 38° W 22:10:56 10° SSW
USA 267 3.2 22:05:13 10° ENE 22:11:45 69° SE 22:18:16 10° SW
Cosmos 1025 Rocket 4.0 22:11:16 10° SSW 22:15:21 45° WNW 22:19:30 10° N
NOSS 2-1 (C) 4.0 22:14:03 10° NW 22:18:29 88° SW 22:23:02 18° SE
ASTEX 1 4.3 22:17:06 10° NNE 22:21:41 35° E 22:24:31 20° SE
Spot 2 Rocket 4.5 22:18:10 10° SSW 22:22:55 41° W 22:27:45 10° NNW
Nadezhda 1 Rocket 4.3 22:18:56 18° SSE 22:23:19 49° E 22:29:09 10° NNE
Cosmos 2154 Rocket 4.2 22:17:13 10° N 22:23:26 62° ENE 22:27:53 19° SSE
Cosmos 1452 Rocket 3.8 22:21:04 17° S 22:24:47 47° ESE 22:29:49 10° NNE
Helios 1A Rocket 4.3 22:21:52 11° SSW 22:25:23 32° W 22:29:06 10° NNW
Cosmos 1455 3.1 22:24:29 10° NNW 22:28:06 43° W 22:30:54 15° SSW
NOSS 2-1 (D) 4.0 22:24:23 10° NW 22:28:52 76° SW 22:33:09 20° SSE
Cosmos 1703 3.2 22:27:00 23° S 22:29:17 64° E 22:33:07 10° NNE
Cosmos 724 4.2 22:25:47 10° SSW 22:31:31 65° ESE 22:37:16 10° NE
Meteor 1-21 Rocket 4.5 22:29:24 20° SSE 22:33:06 52° E 22:38:33 10° NNE
Cosmos 1536 Rocket 3.5 22:30:29 17° S 22:33:50 84° W 22:38:12 10° N
Cosmos 1607 4.1 22:28:17 10° SW 22:34:32 79° NW 22:40:45 10° NE
Cosmos 1980 Rocket 3.6 22:33:25 10° NNW 22:38:26 30° NE 22:43:25 10° ESE
Cosmos 1606 Rocket 3.8 22:37:33 10° N 22:41:49 56° ENE 22:44:04 26° SSE
CSL-04 DEB 4.5 22:37:30 10° NNE 22:41:51 76° ESE 22:44:40 21° S
Cosmos 1697 Rocket 3.2 22:37:10 10° NNW 22:42:42 53° ENE 22:46:39 19° SE
SPOT 5 4.5 22:40:32 10° SSW 22:44:10 24° W 22:47:45 10° NW
ATLAS 2AS CENTAUR R/B 3.0 22:37:17 10° NW 22:44:14 58° WSW 22:48:38 22° SSE
USA 234 3.2 22:41:26 17° SE 22:46:42 78° SW 22:53:17 10° NW
Cosmos 1892 4.3 22:48:56 18° ESE 22:49:52 20° E 22:52:38 10° NE
Cosmos 2228 3.0 22:46:34 10° NNW 22:50:49 77° W 22:53:05 27° S
RESURS DK-1 2.5 22:50:16 10° NNW 22:54:24 69° ENE 22:56:28 28° SE
Cosmos 2184 Rocket 4.3 22:50:05 10° NNW 22:56:08 59° W 23:00:41 18° SSW
Lacrosse 5 rocket 2.4 22:55:11 10° WNW 22:58:37 29° SW 22:59:44 25° SSW
Cosmos 1656 3.9 22:59:46 10° NW 23:05:06 57° WSW 23:08:10 25° S
Meteor 2-1 Rocket 4.2 23:01:37 10° NNW 23:07:09 81° W 23:10:21 26° S
Cosmos 1726 Rocket 3.5 23:03:30 10° N 23:07:51 81° E 23:09:48 32° SSE
Cosmos 1741 Rocket 4.2 23:03:47 10° NNW 23:09:04 66° WSW 23:11:57 27° S
Cosmos 2360 4.3 23:03:32 10° NNW 23:09:18 79° ENE 23:12:45 25° SE
ALOS 2 3.3 23:07:30 24° SE 23:09:42 44° ENE 23:13:53 10° N
Cosmos 2341 Rocket 4.2 23:03:23 10° N 23:09:44 66° ENE 23:13:32 25° SSE
Tiangong 3.6 23:08:03 10° WSW 23:08:19 11° WSW 23:08:19 11° WSW
Cosmos 1833 Rocket 2.7 23:09:16 23° S 23:12:48 66° ESE 23:18:23 10° NNE
Lacrosse 5 2.4 23:08:34 10° WNW 23:13:25 44° SW 23:15:28 29° S
Cosmos 2366 rocket 4.5 23:08:08 10° N 23:14:17 51° ENE 23:18:08 23° SE
Cosmos 2084 4.5 23:12:07 10° WSW 23:15:46 41° NW 23:19:29 10° NNE
SL-8 R/B 3.6 23:14:36 10° W 23:19:26 82° S 23:24:16 10° ESE
Cosmos 968 Rocket 3.8 23:20:05 10° NNW 23:25:14 61° ENE 23:28:10 25° SE
Terra 4.1 23:25:56 10° WSW 23:28:39 15° W 23:31:22 10° NW
Cosmos 2082 Rocket 2.9 23:26:56 28° SSE 23:29:12 39° ESE 23:34:28 10° NE
USA 276 1.7 23:29:52 32° WSW 23:31:04 81° SSE 23:34:00 10° ENE
BREEZE-M DEB (TANK) 3.5 23:29:55 10° W 23:32:53 81° N 23:43:25 10° E
Cosmos 2058 Rocket 3.0 23:29:25 10° N 23:33:49 87° ENE 23:35:36 36° S
Cosmos 1900 4.4 23:30:54 10° NW 23:36:06 90° S 23:38:44 29° SE
Meteor 1-27 4.4 23:35:10 10° N 23:40:44 65° ENE 23:43:39 28° SSE
Cosmos 1869 3.8 23:37:26 10° N 23:41:12 48° ENE 23:42:27 34° SE
Cosmos 1892 Rocket 3.7 23:39:29 30° SSW 23:41:34 70° W 23:45:59 10° N
Cosmos 1959 Rocket 4.5 23:36:07 10° N 23:42:16 77° E 23:45:36 29° SSE
GP-B 3.6 23:38:01 10° N 23:42:21 53° W 23:44:30 27° SSW
Cosmos 2181 Rocket 4.0 23:42:45 29° S 23:46:05 75° E 23:52:16 10° NNE
Cosmos 1408 2.5 23:47:02 46° SSW 23:47:54 72° W 23:51:21 10° N
Cosmos 864 Rocket 4.4 23:46:00 10° N 23:52:11 89° ENE 23:55:32 29° S
Spot 4 4.4 23:51:03 29° SSW 23:53:05 48° W 23:57:43 10° NNW
